Notices

What's New in latest Release from April 7th, 2021:

- Updated Glossary, including Speed of Maximum Gust, and Total Hourly Precipitation

- Updated national and regional climate services offices contacts and prices information

- Addition of station inventory lists for 1981-2010, 1971-2000, and 1961-1990 Normals.

If you haven't already, please take our survey and provide feedback about our website: https://eccc.sondage-survey.ca/f/LanguageSelection.aspx?s=442ca660-fcf1-47c0-95a9-59707d6fd709

Hourly Data Report for February 28, 2017

TORONTO INTL A
ONTARIO

43°40'36.000" N
79°37'50.000" W
173.40 m
6158731
71624
YYZ

Download Data

Hourly Data (February 2017)
Hourly Data Report for February 28, 2017
TIME
LST
Temp Definition
°C
Dew Point Definition
°C
Rel Hum Definition
%
Precip. Amount Definition
mm

Wind Dir Definition
10's deg

Wind Spd Definition
km/h
Visibility Definition
km
Stn Press Definition
kPa
Hmdx Definition


Wind Chill Definition


Weather Definition


00:00 3.1 -3.3 63   13 8 24.1 100.39     LegendNANA
01:00 2.7 -2.2 70   12 10 24.1 100.38     Mostly Cloudy
02:00 2.5 -1.7 74   14 10 24.1 100.38     LegendNANA
03:00 2.4 -0.5 81   10 4 24.1 100.37     LegendNANA
04:00 2.0 -0.4 84   5 5 24.1 100.35     Mostly Cloudy
05:00 1.9 -0.7 83   11 6 24.1 100.30     LegendNANA
06:00 2.0 -0.9 81   12 7 24.1 100.26     LegendNANA
07:00 2.0 -1.3 79   14 7 24.1 100.21     Mostly Cloudy
08:00 2.7 -0.8 78   9 9 19.3 100.17     LegendNANA
09:00 4.0 0.3 77   15 10 19.3 100.16     LegendNANA
10:00 5.0 1.3 77   14 10 24.1 100.07     Cloudy
11:00 7.1 2.2 71   12 12 24.1 99.91     LegendNANA
12:00 6.9 2.4 73   12 11 24.1 99.80     LegendNANA
13:00 7.9 2.8 70   13 13 24.1 99.65     Cloudy
14:00 8.3 2.6 67   12 19 24.1 99.41     LegendNANA
15:00 9.0 3.0 66   10 13 24.1 99.33     LegendNANA
16:00 7.8 2.7 70   8 12 24.1 99.22     Cloudy
17:00 7.6 2.7 71   9 9 24.1 99.13     LegendNANA
18:00 7.8 2.9 71   10 7 24.1 99.01     LegendNANA
19:00 8.2 3.1 70   14 12 24.1 98.90     Rain Showers
20:00 7.8 3.5 74   15 7 24.1 98.84     Rain Showers
21:00 7.6 5.4 86   14 5 24.1 98.81     Rain
22:00 8.4 7.0 91   17 11 24.1 98.65     Cloudy
23:00 8.5 6.6 88   14 9 24.1 98.56     LegendNANA

Notes on Data Quality.

Legend

  • E = Estimated
  • M = Missing
  • NA = Not Available*
  • [empty] = Indicates an unobserved value
Date modified: